TIANQI 20

导读

TIANQI 20(天启20)是中国于2025年5月19日发射的低轨物联网卫星,隶属于天启星座。该星座由中国企业打造,填补了国内低轨物联网卫星领域的技术空白,技术指标达到国际领先水平。天启卫星主要为地面物联网设备提供全域连通服务,后续还将拓展智能手机、智能网联车等消费级应用,助力天地一体化智能互联网络建设。

Basic Information
目录编号:
64061
目录名称:
TIANQI 20
国际标识:
2025-105D
轨道中心:
EARTH
卫星名称:
TIANQI 20
卫星全名:
TIANQI 20
卫星状态:
在轨 (已飞行480 天)
发射日期:
2025-05-19 UTC
国别 :
中国 (CN)
星等 :
--
This satellite is enrolled in the Space Conjunction Data Service (SCDS) and the current flight risk assessment level is: No High Risk
Orbit Information
数据来源 国际轨道数据 AOE轨道数据
星历时间 2026-09-11T14:37:59+0800
12小时前
查看轨道信息
2026-09-10T11:00:00+0800
1天前
查看轨道信息
半长轴 7274.836km 7274.84km
偏心率 0.0008537 0.0008532
轨道倾角 44.987° 44.986°
近地点辐角 74.992° 69.935°
升交点赤经 359.028° 4.153°
平近点角 285.186° 245.367°
近地点 890.488km 890.496km
远地点 902.91km 902.91km
周期 102.919分钟 102.919分钟
每日圈数 13.991621 13.991609
Detailed Information
使用方式:
暂无
2D Orbit Map
3D Orbit Map
Orbit Altitude Analysis Chart
Orbit Inclination Analysis Chart
Orbit Comprehensive Analysis Chart
View Comprehensive Chart
Miss Distance Evolution Trend with All Objects
Collision Probability Evolution Trend with All Objects